Regional Weather Roundup
Issued by NWS

Home | Current Version | Previous Version | Text Only | Print | Product List | Glossary Off
Versions: 1 2 3 4 5 6 7 8 9 10 11 12 13 14 15 16 17 18 19 20 21 22 23 24 25 26 27 28 29 30 31 32 33 34 35 36 37 38 39 40 41 42 43 44 45 46 47 48 49 50

000
ASUS43 KLMK 291902
RWRKY
KENTUCKY REGIONAL WEATHER ROUNDUP
NATIONAL WEATHER SERVICE LOUISVILLE KY
300 PM EDT SAT AUG 29 2015

NOTE "FAIR" INDICATES FEW OR NO CLOUDS BELOW 12,000 FEET
WITH NO SIGNIFICANT WEATHER AND/OR OBSTRUCTIONS TO VISIBILITY.

KYZ001>023-026-027-061>063-070>075-292000-
WESTERN AND SOUTH CENTRAL KENTUCKY

CITY           SKY/WX    TMP DP  RH WIND       PRES   REMARKS
PADUCAH        PTSUNNY   86  69  56 W10G18    30.04F HX  90
HENDERSON      PTSUNNY   88  66  48 SW9       30.03F HX  90
OWENSBORO      PTSUNNY   89  69  51 S12       30.06F HX  93
HOPKINSVILLE   MOSUNNY   87  64  47 VRB6      30.06F
BOWLING GREEN  MOSUNNY   87  69  54 VRB3      30.08F HX  91
GLASGOW        NOT AVBL
$$

KYZ024-025-028>034-038-045-046-053-292000-
NORTH CENTRAL KENTUCKY

CITY           SKY/WX    TMP DP  RH WIND       PRES   REMARKS
LOUISVILLE/SDF MOSUNNY   87  68  52 SE9G22    30.07F HX  90
LOUISVILLE/LOU MOSUNNY   87  67  51 S9        30.09F HX  90
FORT KNOX      SUNNY     86  66  51 S9        30.08F
$$

KYZ035>037-039>044-047>052-055>060-089>105-292000-
NORTHEAST KENTUCKY

CITY           SKY/WX    TMP DP  RH WIND       PRES   REMARKS
LEXINGTON      MOSUNNY   86  66  51 SE8       30.12F
COVINGTON      PTSUNNY   85  65  51 SW9G16    30.10F
FRANKFORT      MOSUNNY   86  66  51 SW8       30.10F
$$

KYZ054-064>069-076>088-106>120-292000-
SOUTHEAST KENTUCKY

CITY           SKY/WX    TMP DP  RH WIND       PRES   REMARKS
JACKSON        PTSUNNY   81  66  60 CALM      30.18F
LONDON         PTSUNNY   83  63  50 S5        30.16F
SOMERSET       NOT AVBL
MIDDLESBORO    PTSUNNY   82  64  54 SE6       30.17F
MONTICELLO     MOCLDY    85  70  60 S9        30.16F
$$



USA.gov is the U.S. government's official web portal to all federal, state and local government web resources and services.